Wind_Speed
22 26 23 22 22 22 22 21 4 9 19 9 7 12 13 17 17 8 15 5 6 7 5 5 2 6 4 15 4 3 7 5 7 15 4 4 2 5 5 4 4 2 4 7
15 19 23 22 22 24 24 10 10 13 27 7 8 12 12 20 9 2 5 6 8 8 10 7 6 8 11 9 6 4 2 2 1 5 3 3 2 3 4 4 4 9 5 6
16 16 20 23 22 24 22 9 3 11 23 16 8 14 17 15 17 19 20 4 5 3 3 5 5 3 5 2 10 5 2 1 4 9 4 4 3 4 5 5 3 7 7 6
17 17 18 23 23 20 22 10 5 7 4 9 13 7 5 18 17 14 4 8 20 17 6 11 14 15 12 10 8 1 5 5 10 9 4 4 4 5 6 5 6 9 8 7
19 19 18 19 23 21 18 7 4 7 1 6 14 10 9 18 8 9 8 14 11 6 13 19 19 13 9 6 3 5 4 4 8 9 10 4 5 7 7 5 4 6 7 9
21 21 20 19 19 22 14 14 9 5 6 4 7 13 16 13 8 13 21 17 8 12 18 21 12 13 10 7 2 4 4 5 4 5 5 2 6 7 9 5 6 7 9 9
24 23 22 21 21 24 26 20 7 8 8 7 7 6 12 17 13 15 6 19 15 22 17 6 6 8 11 15 15 16 4 5 3 3 5 4 6 6 8 13 13 10 4 5
24 23 23 22 23 25 27 27 24 6 3 9 12 15 14 11 13 19 22 30 29 20 10 3 5 3 3 8 15 18 14 7 3 4 9 3 3 4 6 7 7 6 7 6
26 23 23 24 26 25 26 28 24 16 6 5 14 5 10 6 6 5 8 21 17 18 4 4 5 4 1 3 4 12 13 14 7 2 4 7 5 11 12 4 10 5 8 10
27 25 25 27 26 25 26 25 24 18 11 22 12 5 5 10 5 2 2 6 7 18 5 6 4 4 3 3 4 5 6 6 14 6 4 6 5 5 4 4 5 7 20 22
27 25 24 24 25 25 25 27 24 23 17 23 20 14 15 16 11 8 5 2 4 2 7 3 3 3 5 4 5 4 5 6 3 3 4 9 7 1 6 6 1 16 22 26
27 26 25 24 24 25 24 26 26 25 24 14 12 28 36 28 27 14 13 4 4 8 1 2 2 2 1 2 2 2 3 3 4 7 6 6 12 8 5 5 7 14 23 21
26 26 26 25 23 22 26 26 21 20 21 25 32 36 41 31 32 29 13 7 10 9 4 3 2 3 4 4 4 4 3 2 3 2 4 6 15 13 12 12 12 13 12 11
26 25 25 25 22 23 25 26 23 23 6 5 17 21 28 38 38 36 36 33 23 8 12 6 3 2 4 3 2 4 4 2 2 4 3 3 4 12 15 15 15 16 18 20
25 22 22 24 21 22 23 24 26 27 21 4 8 21 24 19 23 32 34 27 22 15 4 2 3 2 1 1 1 3 3 3 3 4 6 4 4 4 4 14 12 13 11 13
23 22 21 22 20 21 18 9 25 28 29 10 4 6 9 14 16 29 28 22 18 9 6 2 3 3 2 1 2 5 16 20 16 8 11 9 4 8 10 10 16 15 17 20
23 21 20 20 21 20 22 9 7 10 27 7 4 4 7 15 12 12 13 12 6 4 5 3 4 5 7 2 4 6 16 13 14 13 9 7 11 9 9 9 13 15 14 16
21 19 17 18 19 17 25 32 17 8 26 6 4 3 5 12 5 4 5 4 4 2 3 3 3 2 2 3 7 23 28 27 24 26 28 28 26 23 21 20 19 21 24 22
19 16 15 16 16 19 31 26 25 28 13 5 3 1 2 13 5 5 4 4 1 3 2 3 3 1 4 8 13 20 25 18 19 21 20 19 20 20 19 19 21 21 23 25
19 18 8 8 16 23 11 9 10 16 9 2 2 5 3 10 5 2 3 1 2 2 4 4 2 4 21 27 28 30 30 29 24 20 22 24 23 25 26 26 25 24 19 20
26 11 8 9 21 16 8 3 2 4 1 6 6 7 4 7 3 2 1 2 1 1 3 3 2 3 5 10 12 15 19 16 16 19 23 24 26 30 29 28 25 25 22 21
27 11 15 9 5 3 3 3 3 3 4 5 5 7 7 6 5 4 2 2 1 3 1 3 3 4 12 10 8 5 5 8 12 13 16 17 18 18 21 24 26 26 23 19
21 4 4 4 2 2 3 4 0 0 4 8 9 3 5 5 4 5 3 3 3 0 2 3 4 9 9 6 8 8 9 11 10 12 12 14 16 16 19 23 24 23 24 25
5 6 3 2 2 1 3 2 3 3 8 20 18 6 3 4 3 2 4 3 2 1 2 5 3 8 6 8 9 8 10 12 12 12 12 12 13 14 15 14 17 22 23 29
4 5 3 2 2 4 4 5 9 10 12 11 8 6 5 3 3 0 3 2 4 5 4 3 8 7 7 8 9 9 10 13 12 11 9 8 9 11 11 8 3 10 19 24
5 7 4 3 4 5 6 10 9 6 8 10 6 3 3 2 4 3 6 4 6 4 3 6 8 7 7 8 9 12 12 12 12 10 8 7 6 5 2 2 5 15 20 19
4 1 3 3 3 3 2 4 5 5 6 2 2 4 6 2 2 3 4 5 4 6 9 3 7 12 13 14 12 12 12 12 12 11 7 6 5 5 6 7 9 9 10 12
Wind_Direction
235 231 230 228 225 223 219 211 201 186 199 170 214 216 214 237 250 310 242 253 265 263 290 292 307 291 324 332 334 201 210 176 234 233 296 205 195 178 148 140 182 160 162 263
237 230 225 224 221 218 216 200 213 186 184 200 219 239 243 244 249 232 230 251 220 252 262 258 215 255 271 261 356 288 139 256 222 322 335 311 191 195 129 86 76 219 196 258
238 233 226 224 221 220 226 207 210 212 194 223 219 229 233 234 237 244 243 289 335 313 261 262 300 274 269 298 208 221 275 203 225 240 217 164 172 214 144 141 139 245 230 232
241 237 230 223 222 221 219 206 209 203 198 215 223 192 243 227 235 230 243 242 239 243 267 274 264 261 276 269 252 210 139 239 260 294 268 178 186 167 167 176 175 193 234 213
239 238 236 227 222 227 230 214 197 193 240 257 201 205 215 240 249 217 226 240 251 278 247 244 267 272 284 266 332 187 165 227 203 221 207 223 205 190 188 212 213 253 229 244
240 239 237 232 224 222 233 243 241 196 221 203 204 209 221 242 207 246 243 237 255 250 254 261 268 273 253 245 153 297 151 162 153 217 234 295 308 212 199 187 194 194 234 237
238 238 239 237 226 225 231 231 248 210 244 217 222 257 226 243 230 242 244 226 234 246 264 256 258 252 254 255 246 220 222 174 200 179 150 227 231 207 222 239 251 228 244 170
242 240 238 238 234 227 235 238 241 268 265 216 230 232 227 252 256 246 248 251 252 275 257 274 246 228 238 238 232 223 216 202 205 188 202 283 279 206 189 184 243 196 230 179
245 241 234 233 234 229 233 239 240 240 295 237 252 242 233 231 235 256 249 256 253 230 197 209 220 219 304 257 279 210 211 229 215 170 209 220 227 219 240 126 256 227 164 156
241 236 231 233 233 229 228 236 233 228 246 257 265 227 219 215 181 249 343 173 202 207 197 219 213 239 156 243 259 178 184 205 215 184 220 288 239 218 135 159 243 177 169 166
236 232 230 231 229 228 224 232 230 221 239 253 248 242 268 282 248 224 175 181 206 229 201 203 186 211 208 171 248 271 175 151 158 115 199 253 211 215 195 208 222 183 180 177
230 228 228 229 230 227 225 231 233 234 236 252 262 255 260 250 246 269 189 223 170 177 152 186 187 225 302 314 269 134 239 229 188 180 208 217 181 205 213 205 204 174 184 194
227 224 226 228 230 224 219 228 226 223 242 267 261 254 252 251 250 240 244 226 190 187 174 146 199 267 170 165 226 304 290 173 194 126 233 205 209 208 186 174 162 179 183 204
219 221 225 223 225 219 223 218 216 217 235 245 275 268 245 255 245 239 242 233 214 206 198 201 172 197 189 213 216 194 215 7 199 284 263 219 244 235 217 202 195 202 223 218
211 215 218 217 217 216 214 220 221 220 213 268 275 255 247 230 246 224 219 209 206 187 146 193 202 213 163 257 41 231 193 213 161 233 244 186 174 90 205 213 204 192 197 230
207 210 213 212 212 210 203 238 234 220 223 259 277 270 182 180 210 192 181 184 186 175 161 194 192 203 168 186 251 250 239 242 237 230 264 244 250 225 218 232 243 231 233 240
207 209 211 211 209 208 201 191 138 209 211 231 256 245 166 148 129 120 134 150 146 154 154 187 190 219 186 165 217 236 246 248 265 255 232 236 240 242 258 236 254 237 251 262
208 210 209 202 209 224 236 220 199 250 181 213 256 251 124 157 120 99 134 126 134 136 143 154 199 222 200 257 229 241 257 262 263 265 267 273 279 281 270 259 254 249 253 261
201 195 196 202 219 234 240 246 247 254 189 219 175 207 145 147 128 127 133 155 76 171 147 227 130 245 231 229 230 248 262 255 262 279 279 280 275 275 273 265 264 260 259 258
175 173 179 220 225 228 224 219 208 196 196 257 243 176 165 143 130 135 116 80 137 159 238 152 159 250 256 263 264 271 278 279 273 265 273 272 266 266 270 269 270 267 262 259
174 189 224 192 173 169 192 149 133 140 94 210 191 186 142 149 115 119 140 169 205 107 261 142 249 260 248 278 294 290 268 265 267 262 265 273 272 270 270 269 264 258 267 254
183 186 137 132 130 162 142 201 181 188 174 180 163 149 109 110 120 105 188 117 45 227 126 89 263 258 277 286 293 289 256 247 247 254 274 286 284 281 273 267 260 255 255 243
161 104 148 166 163 101 178 175 187 79 196 167 149 109 123 112 99 74 94 97 210 66 59 231 230 256 280 253 240 238 264 292 300 300 302 306 307 301 284 268 262 255 245 235
192 152 72 81 340 200 219 185 157 166 158 139 128 88 96 110 63 151 99 233 102 16 236 231 243 273 262 243 255 270 280 289 307 310 317 318 317 317 313 298 262 250 235 219
51 51 77 69 258 41 26 52 81 86 115 114 91 62 82 31 87 80 106 76 245 215 232 235 336 302 273 265 268 280 292 303 309 303 303 307 313 317 321 320 273 216 209 196
43 43 57 33 55 346 52 69 69 84 111 94 74 94 72 230 146 137 209 191 220 236 226 288 294 283 274 285 301 301 300 298 295 291 283 285 291 296 283 325 196 180 185 204
48 18 62 102 132 157 127 107 111 124 152 129 118 142 200 123 167 220 196 211 202 203 217 264 304 300 300 312 308 304 299 289 282 277 267 268 254 245 232 214 171 169 174 189
Height
1463 1466 1467 1472 1477 1481 1481 1481 1481 1482 1490 1494 1490 1480 1476 1481 1477 1477 1480 1476 1476 1476 1474 1473 1468 1467 1459 1455 1457 1457 1454 1461 1464 1457 1451 1449 1450 1454 1456 1476 1475 1490 1506 1489
1458 1460 1463 1467 1472 1475 1476 1474 1478 1478 1481 1484 1481 1474 1472 1479 1475 1473 1476 1473 1471 1473 1471 1475 1466 1463 1459 1456 1459 1457 1454 1460 1467 1461 1454 1449 1448 1450 1452 1463 1471 1474 1489 1487
1454 1455 1458 1463 1467 1469 1473 1472 1472 1475 1471 1474 1473 1472 1468 1474 1470 1469 1472 1471 1472 1472 1468 1468 1464 1462 1458 1455 1453 1456 1454 1460 1460 1459 1453 1453 1455 1451 1450 1459 1478 1474 1478 1466
1449 1452 1454 1459 1463 1465 1468 1462 1461 1464 1463 1467 1468 1470 1465 1465 1464 1466 1465 1468 1467 1470 1469 1465 1462 1459 1459 1453 1452 1454 1455 1467 1464 1457 1450 1446 1446 1449 1451 1456 1457 1466 1469 1461
1445 1448 1452 1453 1458 1461 1460 1458 1458 1462 1458 1461 1464 1463 1463 1462 1460 1463 1463 1463 1462 1465 1464 1459 1458 1458 1459 1455 1452 1451 1453 1460 1460 1457 1452 1452 1447 1454 1454 1453 1455 1457 1457 1455
1440 1443 1446 1449 1451 1455 1455 1456 1455 1456 1456 1457 1459 1451 1449 1451 1458 1458 1458 1458 1462 1459 1454 1457 1456 1457 1456 1456 1456 1459 1451 1459 1459 1454 1451 1446 1455 1455 1451 1446 1447 1450 1454 1446
1435 1437 1439 1443 1446 1449 1451 1453 1454 1454 1451 1451 1450 1446 1447 1449 1453 1453 1451 1452 1455 1451 1452 1453 1454 1452 1452 1453 1450 1452 1451 1453 1453 1448 1453 1455 1440 1433 1433 1435 1435 1438 1438 1441
1427 1430 1434 1437 1441 1445 1446 1449 1453 1451 1446 1442 1446 1445 1443 1446 1448 1447 1447 1445 1449 1450 1451 1453 1451 1447 1446 1440 1437 1440 1443 1447 1451 1451 1445 1437 1433 1431 1433 1433 1435 1432 1435 1436
1420 1424 1427 1431 1435 1439 1442 1443 1448 1451 1448 1441 1443 1440 1441 1442 1445 1446 1440 1442 1444 1446 1447 1448 1441 1437 1438 1436 1430 1428 1434 1440 1440 1445 1441 1446 1431 1422 1422 1427 1433 1428 1430 1433
1414 1417 1421 1424 1428 1432 1436 1436 1442 1446 1444 1438 1441 1438 1438 1439 1439 1440 1438 1438 1440 1441 1442 1440 1439 1437 1435 1433 1426 1426 1431 1436 1434 1439 1441 1434 1423 1421 1423 1437 1438 1423 1425 1428
1407 1410 1414 1417 1421 1425 1429 1430 1436 1439 1436 1434 1434 1434 1435 1434 1433 1434 1436 1438 1436 1437 1434 1433 1435 1435 1429 1431 1428 1420 1418 1424 1435 1441 1442 1441 1419 1421 1428 1423 1420 1421 1423 1425
1400 1404 1408 1412 1416 1420 1425 1426 1430 1433 1434 1428 1427 1426 1425 1429 1431 1431 1429 1429 1429 1430 1430 1433 1433 1433 1427 1423 1428 1419 1429 1421 1425 1426 1426 1415 1414 1416 1416 1416 1416 1418 1422 1426
1394 1399 1403 1407 1410 1415 1419 1421 1426 1428 1429 1424 1421 1412 1418 1421 1422 1426 1428 1425 1425 1425 1426 1429 1431 1430 1424 1427 1428 1420 1415 1414 1420 1420 1414 1412 1411 1413 1414 1415 1415 1419 1423 1426
1388 1393 1397 1401 1406 1410 1413 1416 1420 1423 1424 1420 1406 1407 1404 1408 1412 1414 1418 1422 1421 1421 1421 1425 1424 1425 1420 1422 1418 1420 1418 1415 1415 1416 1411 1411 1410 1410 1412 1414 1415 1416 1420 1421
1384 1388 1392 1397 1401 1405 1409 1411 1414 1417 1422 1411 1403 1399 1396 1397 1396 1400 1408 1412 1414 1416 1419 1421 1421 1419 1421 1420 1420 1418 1413 1413 1418 1417 1407 1406 1407 1407 1409 1411 1413 1414 1416 1421
1380 1385 1389 1393 1398 1402 1404 1406 1406 1409 1414 1416 1405 1394 1390 1386 1389 1397 1402 1406 1410 1413 1413 1415 1415 1416 1418 1425 1422 1409 1406 1405 1406 1406 1407 1406 1406 1407 1408 1408 1412 1412 1413 1414
1376 1382 1386 1390 1394 1396 1398 1399 1401 1404 1412 1413 1407 1394 1389 1388 1393 1397 1401 1405 1407 1410 1411 1414 1415 1414 1414 1419 1414 1406 1402 1402 1402 1403 1403 1403 1403 1403 1405 1406 1407 1408 1409 1409
1374 1379 1384 1389 1392 1395 1393 1392 1398 1401 1404 1409 1401 1386 1386 1392 1396 1401 1404 1406 1408 1409 1410 1413 1413 1411 1411 1412 1399 1394 1393 1394 1396 1396 1397 1398 1398 1398 1398 1399 1400 1401 1402 1402
1373 1379 1384 1387 1388 1387 1382 1390 1395 1396 1399 1393 1388 1387 1388 1391 1397 1401 1404 1406 1411 1410 1410 1409 1409 1410 1408 1394 1389 1389 1389 1390 1390 1390 1391 1391 1391 1391 1391 1392 1393 1393 1394 1395
1374 1380 1382 1381 1377 1383 1387 1389 1391 1388 1385 1386 1385 1386 1387 1389 1394 1401 1402 1404 1407 1411 1407 1406 1409 1402 1389 1385 1384 1383 1382 1383 1384 1384 1384 1384 1384 1384 1384 1385 1386 1387 1388 1389
1370 1374 1375 1372 1374 1381 1382 1377 1378 1381 1383 1385 1382 1382 1381 1387 1391 1395 1399 1405 1407 1410 1406 1406 1405 1397 1382 1378 1378 1376 1375 1376 1377 1378 1377 1378 1377 1376 1376 1377 1378 1380 1381 1382
1365 1367 1369 1370 1373 1375 1376 1378 1376 1375 1373 1375 1376 1377 1379 1384 1387 1393 1400 1402 1407 1406 1402 1409 1405 1388 1378 1378 1376 1375 1376 1375 1374 1374 1372 1370 1369 1369 1368 1368 1369 1372 1375 1377
1364 1365 1368 1369 1373 1373 1368 1377 1371 1377 1371 1371 1372 1379 1380 1385 1388 1394 1399 1404 1409 1402 1413 1404 1390 1377 1374 1375 1375 1373 1373 1373 1371 1370 1367 1364 1362 1362 1361 1361 1362 1364 1367 1370
1359 1360 1366 1366 1372 1368 1366 1364 1364 1366 1365 1366 1369 1374 1378 1384 1389 1396 1402 1402 1401 1407 1412 1390 1380 1372 1373 1373 1373 1372 1371 1369 1367 1365 1364 1362 1361 1359 1357 1355 1354 1356 1359 1363
1355 1357 1370 1371 1368 1365 1363 1362 1362 1363 1366 1367 1371 1376 1379 1386 1392 1394 1397 1402 1404 1394 1389 1381 1374 1374 1373 1372 1371 1369 1369 1367 1365 1364 1363 1362 1360 1358 1356 1354 1352 1354 1358 1363
1359 1363 1367 1368 1369 1370 1367 1366 1366 1367 1368 1370 1373 1381 1387 1390 1390 1393 1396 1390 1388 1383 1377 1374 1374 1372 1371 1371 1368 1367 1367 1365 1364 1363 1361 1361 1361 1360 1359 1358 1358 1358 1361 1364
1365 1369 1368 1368 1368 1370 1370 1370 1371 1371 1373 1377 1377 1384 1384 1384 1387 1387 1382 1382 1375 1371 1370 1369 1369 1369 1368 1367 1365 1364 1364 1363 1362 1361 1361 1361 1361 1361 1361 1361 1361 1362 1364 1367